Location: ?????????
(38.5999°N, 22.7695°E)
Time: 10:28:16
(UTC+00:00)

CZ-2C R/B - Pass Details

Date: 23 May 2024
Orbit: 703 x 904 km, 98.2° (Epoch: 23 June)

Event Time Altitude Azimuth Distance (km) Brightness Sun altitude
Rises 23:57:48 0° 21° (NNE) 3,537 7.7 -27.0°
Reaches altitude 10° 00:00:26 10° 30° (NNE) 2,588 6.7 -26.7°
Maximum altitude 00:05:45 37° 96° (E) 1,365 4.4 -26.3°
Enters shadow 00:07:29 30° 132° (SE) 1,531 4.4 -26.1°
